STARLINK-35651

Satellite information

Favourite Embed

Satellite Type and Status

PAYLOADIN ORBIT

Key statistics

Satellite STARLINK-35651 at a glance.

Uptime

31

Days in orbit

Revolutions

≈ 15.4

Per day

Orbit

LEO

Low Earth Orbit

Inclination

53.2

Latest

Satellite identification and parameters

Extended collection of information and parameters for STARLINK-35651.

Object identification

Identified? True

Debris? False

Object name: STARLINK-35651

International designator: 2025-257G

Object number (NORAD): 66386

Object ID (CCSDS): 66386

Country: UNITED STATES OF AMERICA (US)

Current information (Y/N): Y

Orbital parameters

Period: 93.532 minutes

Inclination: 53.1599 deg

SMA: 6825.511 km

Apoapsis: 447.989 km

Periapsis: 446.763 km

RAAN: 286.8336 deg

Eccentricy: 0.00008984

Argument of periapsis: 105.9394 deg

Mean anomaly: 127.9474 deg

Mean motion: 15.39572087 rev/day

Mean motion (dot): 0.00024207 rev/day2

B* drag term: 0.00061419603 1/REarth

Two-line elements (TLE)

Creation date: Dec. 8, 2025, 3:46 a.m.

Reference frame: TEME

Reference center: EARTH

Epoch: Dec. 8, 2025, midnight UTC

TLE line 0: 0 STARLINK-35651

TLE line 1: 1 66386U 25257G 25342.00004630 .00024207 00000-0 61420-3 0 9990

TLE line 2: 2 66386 53.1599 286.8336 0000898 105.9394 127.9474 15.39572087 5731

Live tracking on map

Real-time ground track for satellite STARLINK-35651.

In-orbit conjunctions

There are no conjunctions computed for STARLINK-35651, at the moment. Check back to stay up to date, as we update our databases every day.

Go to all conjunctions

Associated space launch

3 Chinese satellites reported to be for "orbital technological testing" purposes. Actual usage not known.

STARLINK-35651 was lifted into orbit during the mission ‘Long March 11 | Shiyan 32 01-03’, on board a Long March 11 space rocket.

The launch took place on Nov. 8, 2025, 9:01 p.m. from Oriental Spaceport mobile launch ship.

For more information about the launch, click the button.

Launch to space Long March 11 | Shiyan 32 01-03
Long March 11 | Shiyan 32 01-03

Agency: N/A

Status: Launch Successful

Launch date: Nov. 8, 2025, 9:01 p.m. UTC

Rocket: Long March 11

Launch pad: Oriental Spaceport mobile launch ship

Location: Sea Launch

...

Latest news about this satellite

News about space launch
China breaks annual launch record with VLEO Chutian and Shiyan technology test launches

China conducted a pair of solid rocket launches late Saturday, seeing the country surpass its previous record for orbital launch attempts in a calendar year. The post China breaks annual launch record with VLEO Chutian and Shiyan technology test launches...


Newsletter sign-up

Weekly statistics, charts and insights to help you stay on top of the space industry.